SA3PJN-WX Weather Reports


time (UTC)temp
C
wind
direction
speed
KPH
gust
KPH
rain 1hr
cm
rain 24hr
cm
rain mn
cm
humidity
%
barometer
mb
20260504170920 4 63 8.0 27.4 0.00 0.00 0.00 54 956.0
20260504170420 4 63 9.7 35.4 0.00 0.00 0.00 54 956.0
20260504160250 5 66 8.0 24.1 0.00 0.00 0.00 51 956.0
20260504151119 6 125 12.9 43.5 0.00 0.00 0.00 52 956.0
20260504150619 6 109 12.9 43.5 0.00 0.00 0.00 51 956.0
20260504140849 6 98 8.0 33.8 0.00 0.00 0.00 55 956.0
20260504140319 5 135 8.0 33.8 0.00 0.00 0.00 56 956.0
20260504130749 6 80 6.4 16.1 0.00 0.00 0.00 57 956.4
20260504130249 7 357 6.4 17.7 0.00 0.00 0.00 54 956.4
20260504120248 5 164 12.9 48.3 0.00 0.00 0.00 53 956.2
20260504110718 6 25 8.0 33.8 0.00 0.00 0.00 50 956.0
20260504110218 6 69 8.0 33.8 0.00 0.00 0.00 51 956.0
20260504100517 7 150 9.7 30.6 0.00 0.00 0.00 60 956.1
20260504081717 10 162 6.4 20.9 0.00 0.00 0.00 47 955.4
20260504081217 11 97 4.8 20.9 0.00 0.00 0.00 46 955.7
20260504080717 11 46 4.8 16.1 0.00 0.00 0.00 46 955.8
20260504080217 12 80 3.2 14.5 0.00 0.00 0.00 48 955.8
20260504070146 9 104 3.2 8.0 0.00 0.00 0.00 59 955.8
20260504050716 5 331 1.6 8.0 0.00 0.00 0.00 66 955.6
20260504050146 5 37 3.2 11.3 0.00 0.00 0.00 69 955.4
20260504045646 3 55 6.4 11.3 0.00 0.00 0.00 71 955.4
20260504045146 3 56 6.4 11.3 0.00 0.00 0.00 70 955.2
20260504044646 3 68 6.4 11.3 0.00 0.00 0.00 69 955.3
20260504044146 3 44 6.4 12.9 0.00 0.00 0.00 69 955.4
20260504043616 3 42 6.4 12.9 0.00 0.00 0.00 70 955.5
20260504043046 3 50 6.4 9.7 0.00 0.00 0.00 70 955.6
20260504042546 3 57 4.8 9.7 0.00 0.00 0.00 71 955.6
20260504042046 2 65 6.4 11.3 0.00 0.00 0.00 73 956.0
20260504041546 1 72 4.8 11.3 0.00 0.00 0.00 75 956.0
20260504041046 1 68 4.8 9.7 0.00 0.00 0.00 75 956.0
20260504040546 1 55 4.8 8.0 0.00 0.00 0.00 75 956.0
20260504040046 2 73 4.8 8.0 0.00 0.00 0.00 74 956.0
20260504035546 1 54 3.2 8.0 0.00 0.00 0.00 75 956.0
20260504035046 1 57 3.2 6.4 0.00 0.00 0.00 75 956.0
20260504034546 1 67 3.2 6.4 0.00 0.00 0.00 75 956.0
20260504034046 1 62 3.2 6.4 0.00 0.00 0.00 75 956.0
20260504033546 1 68 3.2 9.7 0.00 0.00 0.00 76 956.0
20260504033046 1 67 3.2 9.7 0.00 0.00 0.00 77 956.0
20260504032546 1 65 4.8 9.7 0.00 0.00 0.00 77 956.0
20260504032015 1 83 4.8 9.7 0.00 0.00 0.00 77 956.0
20260504031515 1 63 4.8 9.7 0.00 0.00 0.00 77 956.2
20260504031016 1 59 4.8 9.7 0.00 0.00 0.00 78 956.1
20260504030515 1 65 4.8 9.7 0.00 0.00 0.00 78 956.3
20260504030015 1 33 3.2 9.7 0.00 0.00 0.00 78 956.4
20260504025446 1 23 4.8 9.7 0.00 0.00 0.00 77 956.5
20260504024945 1 14 6.4 9.7 0.00 0.00 0.00 77 956.5
20260504024445 1 22 6.4 9.7 0.00 0.00 0.00 76 956.5
20260504023945 1 15 4.8 9.7 0.00 0.00 0.00 77 956.6
20260504023445 1 285 3.2 6.4 0.00 0.00 0.00 76 956.5
20260504022945 1 262 3.2 6.4 0.00 0.00 0.00 73 957.0
20260504022445 1 310 4.8 8.0 0.00 0.00 0.00 73 957.0
20260504021945 1 309 4.8 9.7 0.00 0.00 0.00 72 957.0
20260504021445 1 29 4.8 9.7 0.00 0.00 0.00 72 957.0
20260504020945 1 60 3.2 8.0 0.00 0.00 0.00 71 957.0
20260504020445 1 4 1.6 6.4 0.00 0.00 0.00 71 957.1
20260504015945 1 278 1.6 4.8 0.00 0.00 0.00 70 957.2
20260504015445 1 336 3.2 6.4 0.00 0.00 0.00 70 957.2
20260504014915 1 19 3.2 6.4 0.00 0.00 0.00 70 957.3
20260504014415 1 7 3.2 6.4 0.00 0.00 0.00 69 957.3
20260504013845 1 6 3.2 8.0 0.00 0.00 0.00 69 957.3
20260504013345 1 12 3.2 8.0 0.00 0.00 0.00 69 957.4
20260504012845 1 18 1.6 8.0 0.00 0.00 0.00 68 957.5
20260504012315 2 38 1.6 4.8 0.00 0.00 0.00 67 957.4
20260504011815 2 83 3.2 4.8 0.00 0.00 0.00 67 957.6
20260504011315 2 40 3.2 6.4 0.00 0.00 0.00 68 957.6
20260504010815 2 22 3.2 6.4 0.00 0.00 0.00 68 957.6
20260504010315 2 335 3.2 6.4 0.00 0.00 0.00 68 957.5
20260504005815 2 318 3.2 6.4 0.00 0.00 0.00 68 958.0
20260504005315 1 279 3.2 8.0 0.00 0.00 0.00 68 958.0
20260504004815 1 273 3.2 9.7 0.00 0.00 0.00 69 957.6
20260504004315 1 257 4.8 9.7 0.00 0.00 0.00 70 958.0
20260504003815 1 299 4.8 9.7 0.00 0.00 0.00 69 958.0
20260504003245 1 291 6.4 9.7 0.00 0.00 0.00 69 958.0
20260504002745 1 293 6.4 9.7 0.00 0.00 0.00 69 958.0
20260504002245 1 294 6.4 9.7 0.00 0.00 0.00 69 958.0
20260504001744 1 304 6.4 11.3 0.00 0.00 0.00 68 958.1
20260504001214 1 313 6.4 14.5 0.00 0.00 0.00 68 958.2
20260504000645 1 285 6.4 14.5 0.00 0.00 0.00 68 958.2
20260504000144 1 294 6.4 12.9 0.00 0.00 0.00 68 958.1
20260503235644 1 282 6.4 12.9 0.00 0.00 0.00 68 958.2
20260503235144 2 293 6.4 12.9 0.00 0.00 0.00 67 958.4
20260503234644 1 288 6.4 11.3 0.00 0.00 0.00 68 958.4
20260503234144 1 290 6.4 11.3 0.00 0.00 0.00 68 958.4
20260503233614 1 291 6.4 11.3 0.00 0.00 0.00 67 958.6
20260503233114 2 258 8.0 12.9 0.00 0.00 0.00 68 959.0
20260503232614 2 290 8.0 12.9 0.00 0.00 0.00 68 959.0
20260503232114 2 265 8.0 12.9 0.00 0.00 0.00 67 959.0
20260503231614 2 285 9.7 17.7 0.00 0.00 0.00 67 959.0
20260503231044 2 274 9.7 17.7 0.00 0.00 0.00 67 959.0
20260503230544 2 259 9.7 16.1 0.00 0.00 0.00 67 959.0
20260503230044 2 281 8.0 16.1 0.00 0.00 0.00 67 959.0
20260503225514 2 272 9.7 17.7 0.00 0.00 0.00 66 959.0
20260503224944 2 291 11.3 17.7 0.00 0.00 0.00 66 959.1
20260503224444 2 292 11.3 17.7 0.00 0.00 0.00 65 959.1
20260503223944 2 275 9.7 14.5 0.00 0.00 0.00 65 959.2
20260503223444 2 296 9.7 16.1 0.00 0.00 0.00 66 959.4
20260503222944 2 266 9.7 16.1 0.00 0.00 0.00 66 959.4
20260503222414 2 249 9.7 16.1 0.00 0.00 0.00 65 959.5
20260503221914 2 281 9.7 17.7 0.00 0.00 0.00 65 959.5
20260503221414 2 284 9.7 17.7 0.00 0.00 0.00 64 959.5
20260503220914 2 262 8.0 17.7 0.00 0.00 0.00 64 960.0
20260503220344 2 260 9.7 19.3 0.00 0.00 0.00 64 960.1
20260503215844 2 251 9.7 19.3 0.00 0.00 0.00 64 960.0
20260503215344 3 251 9.7 14.5 0.00 0.00 0.00 63 960.0
20260503214844 3 250 8.0 14.5 0.00 0.00 0.00 63 960.1
20260503214344 3 247 8.0 14.5 0.00 0.00 0.00 63 960.1
20260503213844 3 242 8.0 17.7 0.00 0.00 0.00 62 960.2
20260503213344 3 272 8.0 17.7 0.00 0.00 0.00 62 960.2
20260503212844 3 288 8.0 16.1 0.00 0.00 0.00 62 960.1
20260503212344 3 294 8.0 12.9 0.00 0.00 0.00 63 960.2
20260503211844 3 247 8.0 12.9 0.00 0.00 0.00 63 960.2
20260503211314 3 283 8.0 12.9 0.00 0.00 0.00 61 960.3
20260503210814 3 274 6.4 11.3 0.00 0.00 0.00 62 960.3
20260503210244 3 291 6.4 12.9 0.00 0.00 0.00 61 960.4
20260503205744 3 310 6.4 12.9 0.00 0.00 0.00 61 960.3
20260503205243 3 299 6.4 11.3 0.00 0.00 0.00 61 960.4
20260503204743 3 296 6.4 11.3 0.00 0.00 0.00 62 960.4
20260503204243 3 291 6.4 11.3 0.00 0.00 0.00 61 960.5
20260503203743 3 317 6.4 11.3 0.00 0.00 0.00 60 960.6
20260503203243 3 297 6.4 11.3 0.00 0.00 0.00 60 961.0
20260503202743 3 284 6.4 11.3 0.00 0.00 0.00 61 961.0
20260503202243 3 283 6.4 11.3 0.00 0.00 0.00 60 961.0
20260503201743 3 342 6.4 12.9 0.00 0.00 0.00 60 961.0
20260503201243 3 294 6.4 12.9 0.00 0.00 0.00 60 961.0
20260503200743 3 283 6.4 9.7 0.00 0.00 0.00 60 961.1
20260503200243 3 286 6.4 9.7 0.00 0.00 0.00 59 961.2
20260503195743 3 285 4.8 9.7 0.00 0.00 0.00 60 961.2
20260503195243 3 267 4.8 9.7 0.00 0.00 0.00 60 961.3
20260503194743 4 284 4.8 9.7 0.00 0.00 0.00 60 961.5
20260503194243 4 270 4.8 9.7 0.00 0.00 0.00 58 961.5
20260503193713 4 317 4.8 12.9 0.00 0.00 0.00 57 961.5
20260503193213 4 315 4.8 12.9 0.00 0.00 0.00 58 961.5
20260503192713 4 323 4.8 14.5 0.00 0.00 0.00 57 961.5
20260503192143 4 295 4.8 14.5 0.00 0.00 0.00 57 961.5
20260503191643 4 306 6.4 14.5 0.00 0.00 0.00 56 961.4
20260503191143 4 344 4.8 12.9 0.00 0.00 0.00 56 961.6
20260503190643 4 26 4.8 12.9 0.00 0.00 0.00 56 961.6
20260503190143 5 14 4.8 11.3 0.00 0.00 0.00 55 962.0
20260503185643 5 278 6.4 11.3 0.00 0.00 0.00 55 962.0
20260503185143 5 293 4.8 11.3 0.00 0.00 0.00 55 962.0
20260503184643 5 15 4.8 11.3 0.00 0.00 0.00 54 962.0
20260503184143 5 255 4.8 11.3 0.00 0.00 0.00 53 962.0
20260503183643 5 22 3.2 11.3 0.00 0.00 0.00 51 962.0
20260503183143 5 315 4.8 11.3 0.00 0.00 0.00 50 962.0
20260503182643 5 45 4.8 11.3 0.00 0.00 0.00 50 962.0
20260503182143 5 315 4.8 11.3 0.00 0.00 0.00 49 962.0
20260503181643 5 256 6.4 12.9 0.00 0.00 0.00 50 962.0
20260503181143 5 16 6.4 12.9 0.00 0.00 0.00 48 962.0
20260503180642 5 21 4.8 12.9 0.00 0.00 0.00 50 962.0
20260503180142 5 277 4.8 12.9 0.00 0.00 0.00 50 962.0
20260503175612 5 295 8.0 16.1 0.00 0.00 0.00 50 962.2
20260503175112 5 317 8.0 16.1 0.00 0.00 0.00 51 962.0
20260503174612 5 20 8.0 16.1 0.00 0.00 0.00 49 962.2
20260503174113 5 45 6.4 14.5 0.00 0.00 0.00 48 962.3
20260503173542 6 69 6.4 12.9 0.00 0.00 0.00 49 962.4
20260503173042 6 28 6.4 12.9 0.00 0.00 0.00 48 962.4
20260503172542 6 299 4.8 9.7 0.00 0.00 0.00 47 962.5
20260503172042 5 55 4.8 9.7 0.00 0.00 0.00 49 962.5
20260503171512 6 8 4.8 9.7 0.00 0.00 0.00 47 962.5
20260503171012 6 293 3.2 9.7 0.00 0.00 0.00 45 962.5